Time,TemperatureF,DewpointF,PressureIn,WindDirection,WindDirectionDegrees,WindSpeedMPH,WindSpeedGustMPH,Humidity,HourlyPrecipIn,Conditions,Clouds,dailyrainin,SoftwareType,DateUTC
2013-04-08 00:00:00,52.4,42.1,29.88,ESE,115,4.0,-999.0,68,0.00,,,0.00,Wunderground v.1.15,2013-04-08 05:00:00,
2013-04-08 00:05:00,52.7,42.0,29.88,ESE,108,4.0,-999.0,67,0.00,,,0.00,Wunderground v.1.15,2013-04-08 05:05:00,
2013-04-08 00:10:00,52.7,42.0,29.88,ESE,119,3.0,-999.0,67,0.00,,,0.00,Wunderground v.1.15,2013-04-08 05:10:00,
2013-04-08 00:20:00,52.6,42.3,29.88,SE,131,4.0,-999.0,68,0.00,,,0.00,Wunderground v.1.15,2013-04-08 05:20:00,
2013-04-08 00:25:00,52.8,42.1,29.88,South,169,5.0,-999.0,67,0.00,,,0.00,Wunderground v.1.15,2013-04-08 05:25:00,
2013-04-08 00:30:00,53.0,42.3,29.88,SE,130,6.0,-999.0,67,0.00,,,0.00,Wunderground v.1.15,2013-04-08 05:30:00,
2013-04-08 00:35:00,53.3,42.6,29.88,SSE,149,7.0,-999.0,67,0.00,,,0.00,Wunderground v.1.15,2013-04-08 05:35:00,
2013-04-08 00:40:00,53.6,42.5,29.88,SE,132,6.0,-999.0,66,0.00,,,0.00,Wunderground v.1.15,2013-04-08 05:40:00,
2013-04-08 00:45:00,53.8,42.7,29.88,SE,136,6.0,-999.0,66,0.00,,,0.00,Wunderground v.1.15,2013-04-08 05:45:00,
2013-04-08 00:50:00,53.9,42.8,29.87,SE,131,5.0,-999.0,66,0.00,,,0.00,Wunderground v.1.15,2013-04-08 05:50:00,
2013-04-08 01:00:00,54.4,43.7,29.86,SE,144,5.0,-999.0,67,0.00,,,0.00,Wunderground v.1.15,2013-04-08 06:00:00,
2013-04-08 01:05:00,54.7,44.0,29.85,SE,134,5.0,-999.0,67,0.00,,,0.00,Wunderground v.1.15,2013-04-08 06:05:00,
2013-04-08 01:10:00,55.0,44.6,29.84,SE,136,4.0,-999.0,68,0.00,,,0.00,Wunderground v.1.15,2013-04-08 06:10:00,
2013-04-08 01:15:00,55.0,45.4,29.84,SE,124,4.0,-999.0,70,0.00,,,0.00,Wunderground v.1.15,2013-04-08 06:15:00,
2013-04-08 01:20:00,54.9,45.3,29.83,ESE,119,2.0,-999.0,70,0.00,,,0.00,Wunderground v.1.15,2013-04-08 06:20:00,
2013-04-08 01:35:00,55.4,48.0,29.82,SSE,148,3.0,-999.0,76,0.00,,,0.00,Wunderground v.1.15,2013-04-08 06:35:00,
2013-04-08 01:40:00,56.0,48.2,29.82,ESE,121,4.0,-999.0,75,0.00,,,0.00,Wunderground v.1.15,2013-04-08 06:40:00,
2013-04-08 01:45:00,56.2,48.0,29.82,SE,141,4.0,-999.0,74,0.00,,,0.00,Wunderground v.1.15,2013-04-08 06:45:00,
2013-04-08 01:50:00,56.5,48.7,29.82,SE,138,4.0,-999.0,75,0.00,,,0.00,Wunderground v.1.15,2013-04-08 06:50:00,
2013-04-08 01:55:00,56.7,49.2,29.81,ESE,123,5.0,-999.0,76,0.00,,,0.00,Wunderground v.1.15,2013-04-08 06:55:00,
2013-04-08 02:05:00,57.9,51.1,29.81,SSE,147,6.0,-999.0,78,0.00,,,0.00,Wunderground v.1.15,2013-04-08 07:05:00,
2013-04-08 02:10:00,58.5,51.0,29.81,SSE,152,8.0,-999.0,76,0.00,,,0.00,Wunderground v.1.15,2013-04-08 07:10:00,
2013-04-08 02:15:00,58.8,51.2,29.80,SSE,147,8.0,-999.0,76,0.00,,,0.00,Wunderground v.1.15,2013-04-08 07:15:00,
2013-04-08 02:20:00,58.9,51.3,29.80,SSE,149,8.0,-999.0,76,0.00,,,0.00,Wunderground v.1.15,2013-04-08 07:20:00,
2013-04-08 02:25:00,59.0,51.4,29.79,SE,143,9.0,-999.0,76,0.00,,,0.00,Wunderground v.1.15,2013-04-08 07:25:00,
2013-04-08 02:35:00,59.1,52.2,29.79,SSE,157,8.0,-999.0,78,0.00,,,0.00,Wunderground v.1.15,2013-04-08 07:35:00,
2013-04-08 02:45:00,59.4,53.2,29.79,SSE,150,7.0,-999.0,80,0.00,,,0.00,Wunderground v.1.15,2013-04-08 07:45:00,
2013-04-08 02:50:00,59.5,53.3,29.79,SE,140,7.0,-999.0,80,0.00,,,0.00,Wunderground v.1.15,2013-04-08 07:50:00,
2013-04-08 02:55:00,59.3,53.5,29.78,SSE,163,6.0,-999.0,81,0.00,,,0.00,Wunderground v.1.15,2013-04-08 07:55:00,
2013-04-08 03:05:00,58.2,54.0,29.78,SSE,153,7.0,-999.0,86,0.10,,,0.02,Wunderground v.1.15,2013-04-08 08:05:00,
2013-04-08 03:10:00,57.8,54.0,29.78,SE,138,7.0,-999.0,87,0.08,,,0.03,Wunderground v.1.15,2013-04-08 08:10:00,
2013-04-08 03:20:00,57.4,54.5,29.77,SSE,155,7.0,-999.0,90,0.08,,,0.04,Wunderground v.1.15,2013-04-08 08:20:00,
2013-04-08 03:30:00,57.4,54.8,29.77,South,172,7.0,-999.0,91,0.04,,,0.04,Wunderground v.1.15,2013-04-08 08:30:00,
2013-04-08 03:35:00,57.5,55.2,29.77,SSW,207,7.0,-999.0,92,0.00,,,0.04,Wunderground v.1.15,2013-04-08 08:35:00,
2013-04-08 03:45:00,57.9,55.6,29.76,South,169,8.0,-999.0,92,0.00,,,0.04,Wunderground v.1.15,2013-04-08 08:45:00,
2013-04-08 03:50:00,58.0,55.7,29.76,South,188,8.0,-999.0,92,0.16,,,0.06,Wunderground v.1.15,2013-04-08 08:50:00,
2013-04-08 03:55:00,58.0,55.7,29.76,South,184,7.0,-999.0,92,0.11,,,0.06,Wunderground v.1.15,2013-04-08 08:55:00,
2013-04-08 04:00:00,58.0,55.7,29.76,SSW,198,6.0,-999.0,92,0.06,,,0.06,Wunderground v.1.15,2013-04-08 09:00:00,
2013-04-08 04:05:00,58.0,55.7,29.76,South,186,7.0,-999.0,92,0.04,,,0.06,Wunderground v.1.15,2013-04-08 09:05:00,
2013-04-08 04:10:00,58.1,55.8,29.75,South,178,8.0,-999.0,92,0.00,,,0.06,Wunderground v.1.15,2013-04-08 09:10:00,
2013-04-08 04:15:00,58.0,55.7,29.75,South,170,7.0,-999.0,92,0.00,,,0.06,Wunderground v.1.15,2013-04-08 09:15:00,
2013-04-08 04:25:00,57.8,55.5,29.74,SSE,153,6.0,-999.0,92,0.00,,,0.06,Wunderground v.1.15,2013-04-08 09:25:00,
2013-04-08 04:35:00,57.7,55.4,29.74,SSW,196,6.0,-999.0,92,0.00,,,0.06,Wunderground v.1.15,2013-04-08 09:35:00,
2013-04-08 04:45:00,57.7,55.4,29.74,SSE,161,7.0,-999.0,92,0.00,,,0.06,Wunderground v.1.15,2013-04-08 09:45:00,
2013-04-08 04:50:00,57.7,55.4,29.74,South,190,7.0,-999.0,92,0.00,,,0.06,Wunderground v.1.15,2013-04-08 09:50:00,
2013-04-08 04:55:00,57.6,55.3,29.73,SSE,153,6.0,-999.0,92,0.00,,,0.06,Wunderground v.1.15,2013-04-08 09:55:00,
2013-04-08 05:00:00,57.6,55.3,29.73,SSE,159,6.0,-999.0,92,0.00,,,0.06,Wunderground v.1.15,2013-04-08 10:00:00,
2013-04-08 05:05:00,57.6,55.3,29.72,SE,146,7.0,-999.0,92,0.00,,,0.06,Wunderground v.1.15,2013-04-08 10:05:00,
2013-04-08 05:10:00,57.7,55.4,29.72,SSE,167,8.0,-999.0,92,0.00,,,0.06,Wunderground v.1.15,2013-04-08 10:10:00,
2013-04-08 05:20:00,57.6,55.3,29.72,South,180,8.0,-999.0,92,0.00,,,0.06,Wunderground v.1.15,2013-04-08 10:20:00,
2013-04-08 05:25:00,57.7,55.4,29.71,South,186,9.0,-999.0,92,0.00,,,0.06,Wunderground v.1.15,2013-04-08 10:25:00,
2013-04-08 05:30:00,58.0,55.4,29.71,SSW,197,12.0,-999.0,91,0.00,,,0.07,Wunderground v.1.15,2013-04-08 10:30:00,
2013-04-08 05:35:00,58.0,55.4,29.69,SW,227,12.0,-999.0,91,0.00,,,0.07,Wunderground v.1.15,2013-04-08 10:35:00,
2013-04-08 05:40:00,58.0,55.4,29.68,South,175,12.0,-999.0,91,0.05,,,0.08,Wunderground v.1.15,2013-04-08 10:40:00,
2013-04-08 05:50:00,58.1,55.5,29.68,SSW,206,16.0,-999.0,91,0.05,,,0.08,Wunderground v.1.15,2013-04-08 10:50:00,
2013-04-08 05:55:00,57.9,55.3,29.68,SSW,196,15.0,-999.0,91,0.00,,,0.08,Wunderground v.1.15,2013-04-08 10:55:00,
2013-04-08 06:00:00,57.8,55.5,29.68,SW,217,15.0,-999.0,92,0.00,,,0.09,Wunderground v.1.15,2013-04-08 11:00:00,
2013-04-08 06:05:00,57.6,55.3,29.67,SSW,202,15.0,-999.0,92,0.00,,,0.09,Wunderground v.1.15,2013-04-08 11:05:00,
2013-04-08 06:10:00,57.5,55.2,29.67,SSW,199,14.0,-999.0,92,0.00,,,0.09,Wunderground v.1.15,2013-04-08 11:10:00,
2013-04-08 06:20:00,57.5,55.2,29.68,South,188,15.0,-999.0,92,0.00,,,0.09,Wunderground v.1.15,2013-04-08 11:20:00,
2013-04-08 06:25:00,57.4,54.8,29.68,SW,217,15.0,-999.0,91,0.00,,,0.09,Wunderground v.1.15,2013-04-08 11:25:00,
2013-04-08 06:30:00,57.4,54.8,29.69,South,187,15.0,-999.0,91,0.00,,,0.09,Wunderground v.1.15,2013-04-08 11:30:00,
2013-04-08 06:35:00,57.3,54.7,29.68,SSW,192,14.0,-999.0,91,0.00,,,0.09,Wunderground v.1.15,2013-04-08 11:35:00,
2013-04-08 06:40:00,57.1,54.5,29.69,SW,230,14.0,-999.0,91,0.00,,,0.09,Wunderground v.1.15,2013-04-08 11:40:00,
2013-04-08 06:45:00,57.1,54.5,29.69,SW,215,13.0,-999.0,91,0.00,,,0.09,Wunderground v.1.15,2013-04-08 11:45:00,
2013-04-08 06:55:00,56.9,54.6,29.70,SSW,211,13.0,-999.0,92,0.00,,,0.09,Wunderground v.1.15,2013-04-08 11:55:00,
2013-04-08 07:00:00,56.7,54.4,29.70,SW,217,11.0,-999.0,92,0.00,,,0.09,Wunderground v.1.15,2013-04-08 12:00:00,
2013-04-08 07:10:00,56.7,54.4,29.70,SSW,194,12.0,-999.0,92,0.00,,,0.09,Wunderground v.1.15,2013-04-08 12:10:00,
2013-04-08 07:20:00,56.6,54.3,29.71,SW,225,12.0,-999.0,92,0.00,,,0.09,Wunderground v.1.15,2013-04-08 12:20:00,
2013-04-08 07:25:00,56.6,54.3,29.71,WSW,240,10.0,-999.0,92,0.00,,,0.09,Wunderground v.1.15,2013-04-08 12:25:00,
2013-04-08 07:30:00,56.6,54.3,29.71,SW,215,9.0,-999.0,92,0.00,,,0.09,Wunderground v.1.15,2013-04-08 12:30:00,
2013-04-08 07:35:00,56.7,54.4,29.71,SW,215,10.0,-999.0,92,0.00,,,0.09,Wunderground v.1.15,2013-04-08 12:35:00,
2013-04-08 07:40:00,56.8,54.5,29.72,SW,222,10.0,-999.0,92,0.00,,,0.09,Wunderground v.1.15,2013-04-08 12:40:00,
2013-04-08 07:45:00,56.8,54.5,29.72,SW,220,10.0,-999.0,92,0.00,,,0.09,Wunderground v.1.15,2013-04-08 12:45:00,
2013-04-08 07:55:00,57.0,54.7,29.71,SSW,213,10.0,-999.0,92,0.00,,,0.09,Wunderground v.1.15,2013-04-08 12:55:00,
2013-04-08 08:00:00,57.2,54.9,29.71,SW,221,11.0,-999.0,92,0.00,,,0.09,Wunderground v.1.15,2013-04-08 13:00:00,
2013-04-08 08:05:00,57.5,55.2,29.71,SSW,211,11.0,-999.0,92,0.00,,,0.09,Wunderground v.1.15,2013-04-08 13:05:00,
2013-04-08 08:10:00,57.8,55.2,29.70,SW,227,13.0,-999.0,91,0.00,,,0.09,Wunderground v.1.15,2013-04-08 13:10:00,
2013-04-08 08:15:00,58.0,55.4,29.74,West,270,13.0,-999.0,91,0.00,,,0.09,Wunderground v.1.15,2013-04-08 13:15:00,
2013-04-08 08:40:00,56.2,54.2,29.75,West,270,5.0,-999.0,93,0.05,,,0.19,Wunderground v.1.15,2013-04-08 13:40:00,
2013-04-08 08:45:00,56.1,54.1,29.76,West,278,5.0,-999.0,93,0.00,,,0.19,Wunderground v.1.15,2013-04-08 13:45:00,
2013-04-08 08:50:00,56.0,54.0,29.76,West,279,6.0,-999.0,93,0.00,,,0.19,Wunderground v.1.15,2013-04-08 13:50:00,
2013-04-08 09:00:00,56.2,53.9,29.76,West,280,6.0,-999.0,92,0.00,,,0.19,Wunderground v.1.15,2013-04-08 14:00:00,
2013-04-08 09:05:00,56.4,54.1,29.76,West,274,6.0,-999.0,92,0.00,,,0.19,Wunderground v.1.15,2013-04-08 14:05:00,
2013-04-08 09:10:00,56.6,54.0,29.76,WNW,282,6.0,-999.0,91,0.00,,,0.19,Wunderground v.1.15,2013-04-08 14:10:00,
2013-04-08 09:15:00,56.9,54.3,29.76,WNW,283,6.0,-999.0,91,0.00,,,0.19,Wunderground v.1.15,2013-04-08 14:15:00,
2013-04-08 09:20:00,57.3,54.7,29.76,West,277,6.0,-999.0,91,0.00,,,0.19,Wunderground v.1.15,2013-04-08 14:20:00,
2013-04-08 09:25:00,58.0,55.7,29.76,WSW,241,5.0,-999.0,92,0.00,,,0.19,Wunderground v.1.15,2013-04-08 14:25:00,
2013-04-08 09:35:00,59.6,56.4,29.76,West,265,5.0,-999.0,89,0.00,,,0.19,Wunderground v.1.15,2013-04-08 14:35:00,
2013-04-08 09:40:00,59.8,55.9,29.77,West,268,5.0,-999.0,87,0.00,,,0.19,Wunderground v.1.15,2013-04-08 14:40:00,
2013-04-08 09:45:00,59.8,55.6,29.77,West,260,6.0,-999.0,86,0.00,,,0.19,Wunderground v.1.15,2013-04-08 14:45:00,
2013-04-08 09:50:00,59.9,56.0,29.77,West,263,7.0,-999.0,87,0.00,,,0.19,Wunderground v.1.15,2013-04-08 14:50:00,
2013-04-08 09:55:00,60.3,56.1,29.77,West,264,7.0,-999.0,86,0.00,,,0.19,Wunderground v.1.15,2013-04-08 14:55:00,
2013-04-08 10:05:00,61.4,57.2,29.77,West,267,5.0,-999.0,86,0.00,,,0.19,Wunderground v.1.15,2013-04-08 15:05:00,
2013-04-08 10:10:00,61.7,57.1,29.77,WSW,253,5.0,-999.0,85,0.00,,,0.19,Wunderground v.1.15,2013-04-08 15:10:00,
2013-04-08 10:15:00,62.1,57.5,29.78,West,267,6.0,-999.0,85,0.00,,,0.19,Wunderground v.1.15,2013-04-08 15:15:00,
2013-04-08 10:25:00,62.5,56.9,29.78,West,260,7.0,-999.0,82,0.00,,,0.19,Wunderground v.1.15,2013-04-08 15:25:00,
2013-04-08 10:30:00,62.4,56.8,29.78,West,263,7.0,-999.0,82,0.00,,,0.19,Wunderground v.1.15,2013-04-08 15:30:00,
2013-04-08 10:35:00,62.2,56.0,29.79,West,265,7.0,-999.0,80,0.00,,,0.19,Wunderground v.1.15,2013-04-08 15:35:00,
2013-04-08 10:40:00,62.4,56.8,29.79,WNW,284,8.0,-999.0,82,0.00,,,0.19,Wunderground v.1.15,2013-04-08 15:40:00,
2013-04-08 10:45:00,62.6,57.0,29.79,West,262,7.0,-999.0,82,0.00,,,0.19,Wunderground v.1.15,2013-04-08 15:45:00,
2013-04-08 10:50:00,63.0,57.8,29.79,West,272,7.0,-999.0,83,0.00,,,0.19,Wunderground v.1.15,2013-04-08 15:50:00,
2013-04-08 10:55:00,63.8,57.5,29.79,West,265,6.0,-999.0,80,0.00,,,0.19,Wunderground v.1.15,2013-04-08 15:55:00,
2013-04-08 11:00:00,63.8,56.8,29.79,West,261,6.0,-999.0,78,0.00,,,0.19,Wunderground v.1.15,2013-04-08 16:00:00,
2013-04-08 11:10:00,63.7,56.7,29.79,West,261,7.0,-999.0,78,0.00,,,0.19,Wunderground v.1.15,2013-04-08 16:10:00,
2013-04-08 11:15:00,64.0,57.0,29.80,West,271,6.0,-999.0,78,0.00,,,0.19,Wunderground v.1.15,2013-04-08 16:15:00,
2013-04-08 11:20:00,64.6,57.9,29.79,West,267,6.0,-999.0,79,0.00,,,0.19,Wunderground v.1.15,2013-04-08 16:20:00,
2013-04-08 11:25:00,64.9,57.5,29.79,West,262,6.0,-999.0,77,0.00,,,0.19,Wunderground v.1.15,2013-04-08 16:25:00,
2013-04-08 11:30:00,64.7,57.3,29.79,WSW,244,6.0,-999.0,77,0.00,,,0.19,Wunderground v.1.15,2013-04-08 16:30:00,
2013-04-08 11:40:00,65.7,57.9,29.79,West,269,5.0,-999.0,76,0.00,,,0.19,Wunderground v.1.15,2013-04-08 16:40:00,
2013-04-08 11:45:00,65.9,57.7,29.79,West,269,5.0,-999.0,75,0.00,,,0.19,Wunderground v.1.15,2013-04-08 16:45:00,
2013-04-08 11:50:00,66.5,58.7,29.79,West,267,5.0,-999.0,76,0.00,,,0.19,Wunderground v.1.15,2013-04-08 16:50:00,
2013-04-08 11:55:00,66.4,57.9,29.79,SW,217,6.0,-999.0,74,0.00,,,0.19,Wunderground v.1.15,2013-04-08 16:55:00,
2013-04-08 12:00:00,67.0,57.3,29.79,West,269,6.0,-999.0,71,0.00,,,0.19,Wunderground v.1.15,2013-04-08 17:00:00,
2013-04-08 12:05:00,67.4,58.4,29.79,West,267,6.0,-999.0,73,0.00,,,0.19,Wunderground v.1.15,2013-04-08 17:05:00,
2013-04-08 12:15:00,68.1,58.3,29.80,SW,227,5.0,-999.0,71,0.00,,,0.19,Wunderground v.1.15,2013-04-08 17:15:00,
2013-04-08 12:20:00,68.5,57.5,29.80,West,269,5.0,-999.0,68,0.00,,,0.19,Wunderground v.1.15,2013-04-08 17:20:00,
2013-04-08 12:25:00,68.8,57.0,29.80,WSW,252,5.0,-999.0,66,0.00,,,0.19,Wunderground v.1.15,2013-04-08 17:25:00,
2013-04-08 12:30:00,69.3,58.3,29.80,West,267,5.0,-999.0,68,0.00,,,0.19,Wunderground v.1.15,2013-04-08 17:30:00,
2013-04-08 12:35:00,69.6,56.4,29.80,West,273,5.0,-999.0,63,0.00,,,0.19,Wunderground v.1.15,2013-04-08 17:35:00,
2013-04-08 12:50:00,70.3,56.7,29.80,West,266,5.0,-999.0,62,0.00,,,0.19,Wunderground v.1.15,2013-04-08 17:50:00,
2013-04-08 12:55:00,70.0,55.9,29.80,NW,321,6.0,-999.0,61,0.00,,,0.19,Wunderground v.1.15,2013-04-08 17:55:00,
2013-04-08 13:00:00,69.0,55.4,29.80,West,266,7.0,-999.0,62,0.00,,,0.19,Wunderground v.1.15,2013-04-08 18:00:00,
2013-04-08 13:05:00,69.3,56.2,29.80,West,273,6.0,-999.0,63,0.00,,,0.19,Wunderground v.1.15,2013-04-08 18:05:00,
2013-04-08 13:20:00,70.1,55.6,29.80,WSW,240,7.0,-999.0,60,0.00,,,0.19,Wunderground v.1.15,2013-04-08 18:20:00,
2013-04-08 13:25:00,69.9,55.4,29.80,West,271,7.0,-999.0,60,0.00,,,0.19,Wunderground v.1.15,2013-04-08 18:25:00,
2013-04-08 13:30:00,70.1,55.6,29.80,WNW,286,6.0,-999.0,60,0.00,,,0.19,Wunderground v.1.15,2013-04-08 18:30:00,
2013-04-08 13:35:00,70.1,55.6,29.80,West,273,7.0,-999.0,60,0.00,,,0.19,Wunderground v.1.15,2013-04-08 18:35:00,
2013-04-08 13:40:00,71.0,57.3,29.80,WSW,258,6.0,-999.0,62,0.00,,,0.19,Wunderground v.1.15,2013-04-08 18:40:00,
2013-04-08 13:50:00,72.0,57.4,29.80,West,265,5.0,-999.0,60,0.00,,,0.19,Wunderground v.1.15,2013-04-08 18:50:00,
2013-04-08 13:55:00,72.5,57.4,29.80,SSW,209,5.0,-999.0,59,0.00,,,0.19,Wunderground v.1.15,2013-04-08 18:55:00,
2013-04-08 14:00:00,72.8,57.2,29.80,West,278,5.0,-999.0,58,0.00,,,0.19,Wunderground v.1.15,2013-04-08 19:00:00,
2013-04-08 14:10:00,72.7,55.6,29.80,West,263,7.0,-999.0,55,0.00,,,0.19,Wunderground v.1.15,2013-04-08 19:10:00,
2013-04-08 14:20:00,73.8,55.1,29.80,West,273,5.0,-999.0,52,0.00,,,0.19,Wunderground v.1.15,2013-04-08 19:20:00,
2013-04-08 14:25:00,73.2,56.1,29.79,West,267,5.0,-999.0,55,0.00,,,0.19,Wunderground v.1.15,2013-04-08 19:25:00,
2013-04-08 14:30:00,73.4,54.2,29.79,West,267,5.0,-999.0,51,0.00,,,0.19,Wunderground v.1.15,2013-04-08 19:30:00,
2013-04-08 14:35:00,73.5,55.8,29.79,West,265,5.0,-999.0,54,0.00,,,0.19,Wunderground v.1.15,2013-04-08 19:35:00,
2013-04-08 14:40:00,73.6,56.4,29.80,WNW,284,5.0,-999.0,55,0.00,,,0.19,Wunderground v.1.15,2013-04-08 19:40:00,
2013-04-08 14:45:00,73.9,57.2,29.79,WSW,242,4.0,-999.0,56,0.00,,,0.19,Wunderground v.1.15,2013-04-08 19:45:00,
2013-04-08 14:55:00,74.3,57.1,29.80,West,261,6.0,-999.0,55,0.00,,,0.19,Wunderground v.1.15,2013-04-08 19:55:00,
2013-04-08 15:00:00,74.8,58.5,29.80,SW,226,5.0,-999.0,57,0.00,,,0.19,Wunderground v.1.15,2013-04-08 20:00:00,
2013-04-08 15:05:00,75.1,56.8,29.80,West,279,4.0,-999.0,53,0.00,,,0.19,Wunderground v.1.15,2013-04-08 20:05:00,
2013-04-08 15:10:00,74.6,56.9,29.80,West,273,5.0,-999.0,54,0.00,,,0.19,Wunderground v.1.15,2013-04-08 20:10:00,
2013-04-08 15:15:00,74.6,56.9,29.80,West,265,6.0,-999.0,54,0.00,,,0.19,Wunderground v.1.15,2013-04-08 20:15:00,
2013-04-08 15:20:00,75.0,58.2,29.80,West,263,4.0,-999.0,56,0.00,,,0.19,Wunderground v.1.15,2013-04-08 20:20:00,
2013-04-08 15:30:00,74.3,57.1,29.79,WNW,292,5.0,-999.0,55,0.00,,,0.19,Wunderground v.1.15,2013-04-08 20:30:00,
2013-04-08 15:35:00,74.4,56.7,29.80,WSW,242,5.0,-999.0,54,0.00,,,0.19,Wunderground v.1.15,2013-04-08 20:35:00,
2013-04-08 15:45:00,75.3,58.5,29.80,WSW,254,4.0,-999.0,56,0.00,,,0.19,Wunderground v.1.15,2013-04-08 20:45:00,
2013-04-08 15:50:00,75.3,58.0,29.80,West,266,4.0,-999.0,55,0.00,,,0.19,Wunderground v.1.15,2013-04-08 20:50:00,
2013-04-08 16:00:00,75.0,58.2,29.80,SW,236,4.0,-999.0,56,0.00,,,0.19,Wunderground v.1.15,2013-04-08 21:00:00,
2013-04-08 16:05:00,75.3,58.0,29.80,WSW,241,4.0,-999.0,55,0.00,,,0.19,Wunderground v.1.15,2013-04-08 21:05:00,
2013-04-08 16:10:00,75.4,57.6,29.81,West,278,3.0,-999.0,54,0.00,,,0.19,Wunderground v.1.15,2013-04-08 21:10:00,
2013-04-08 16:15:00,74.9,57.6,29.81,West,275,4.0,-999.0,55,0.00,,,0.19,Wunderground v.1.15,2013-04-08 21:15:00,
2013-04-08 16:20:00,74.5,58.3,29.81,SW,225,4.0,-999.0,57,0.00,,,0.19,Wunderground v.1.15,2013-04-08 21:20:00,
2013-04-08 16:30:00,75.1,58.3,29.81,West,271,3.0,-999.0,56,0.00,,,0.19,Wunderground v.1.15,2013-04-08 21:30:00,
2013-04-08 16:35:00,74.8,58.5,29.82,SW,234,3.0,-999.0,57,0.00,,,0.19,Wunderground v.1.15,2013-04-08 21:35:00,
2013-04-08 16:40:00,74.2,58.0,29.82,West,279,3.0,-999.0,57,0.00,,,0.19,Wunderground v.1.15,2013-04-08 21:40:00,
2013-04-08 16:45:00,74.1,58.4,29.82,WNW,284,3.0,-999.0,58,0.00,,,0.19,Wunderground v.1.15,2013-04-08 21:45:00,
2013-04-08 16:55:00,73.6,58.4,29.82,WSW,252,3.0,-999.0,59,0.00,,,0.19,Wunderground v.1.15,2013-04-08 21:55:00,
2013-04-08 17:00:00,73.9,58.7,29.82,SW,227,4.0,-999.0,59,0.00,,,0.19,Wunderground v.1.15,2013-04-08 22:00:00,
2013-04-08 17:05:00,73.5,57.8,29.82,West,260,4.0,-999.0,58,0.00,,,0.19,Wunderground v.1.15,2013-04-08 22:05:00,
2013-04-08 17:10:00,73.0,57.8,29.82,West,260,3.0,-999.0,59,0.00,,,0.19,Wunderground v.1.15,2013-04-08 22:10:00,
2013-04-08 17:15:00,72.9,57.7,29.82,WNW,301,2.0,-999.0,59,0.00,,,0.19,Wunderground v.1.15,2013-04-08 22:15:00,
2013-04-08 17:20:00,72.6,58.4,29.83,West,266,2.0,-999.0,61,0.00,,,0.19,Wunderground v.1.15,2013-04-08 22:20:00,
2013-04-08 17:25:00,72.6,57.9,29.83,West,277,2.0,-999.0,60,0.00,,,0.19,Wunderground v.1.15,2013-04-08 22:25:00,
2013-04-08 17:35:00,72.3,57.6,29.83,WNW,284,2.0,-999.0,60,0.00,,,0.19,Wunderground v.1.15,2013-04-08 22:35:00,
2013-04-08 17:40:00,72.1,57.9,29.84,WNW,297,2.0,-999.0,61,0.00,,,0.19,Wunderground v.1.15,2013-04-08 22:40:00,
2013-04-08 17:45:00,71.8,58.1,29.84,WNW,288,2.0,-999.0,62,0.00,,,0.19,Wunderground v.1.15,2013-04-08 22:45:00,
2013-04-08 17:50:00,71.5,57.8,29.84,WNW,288,2.0,-999.0,62,0.00,,,0.19,Wunderground v.1.15,2013-04-08 22:50:00,
2013-04-08 17:55:00,71.3,58.1,29.84,WNW,288,1.0,-999.0,63,0.00,,,0.19,Wunderground v.1.15,2013-04-08 22:55:00,
2013-04-08 18:05:00,71.1,57.9,29.84,WNW,287,0.0,-999.0,63,0.00,,,0.19,Wunderground v.1.15,2013-04-08 23:05:00,
2013-04-08 18:10:00,71.1,58.3,29.84,WNW,287,0.0,-999.0,64,0.00,,,0.19,Wunderground v.1.15,2013-04-08 23:10:00,
2013-04-08 18:15:00,71.2,58.4,29.84,WNW,287,0.0,-999.0,64,0.00,,,0.19,Wunderground v.1.15,2013-04-08 23:15:00,
2013-04-08 18:20:00,71.2,58.4,29.84,WNW,287,0.0,-999.0,64,0.00,,,0.19,Wunderground v.1.15,2013-04-08 23:20:00,
2013-04-08 18:25:00,71.1,58.3,29.84,WNW,287,0.0,-999.0,64,0.00,,,0.19,Wunderground v.1.15,2013-04-08 23:25:00,
2013-04-08 18:30:00,71.1,58.3,29.84,WNW,287,0.0,-999.0,64,0.00,,,0.19,Wunderground v.1.15,2013-04-08 23:30:00,
2013-04-08 18:35:00,71.0,58.6,29.84,WNW,287,0.0,-999.0,65,0.00,,,0.19,Wunderground v.1.15,2013-04-08 23:35:00,
2013-04-08 18:40:00,70.9,58.5,29.84,WNW,287,0.0,-999.0,65,0.00,,,0.19,Wunderground v.1.15,2013-04-08 23:40:00,
2013-04-08 18:45:00,70.7,58.4,29.84,WNW,287,0.0,-999.0,65,0.00,,,0.19,Wunderground v.1.15,2013-04-08 23:45:00,
2013-04-08 18:50:00,70.6,58.3,29.84,WNW,287,0.0,-999.0,65,0.00,,,0.19,Wunderground v.1.15,2013-04-08 23:50:00,
2013-04-08 18:55:00,70.5,58.2,29.85,WNW,287,0.0,-999.0,65,0.00,,,0.19,Wunderground v.1.15,2013-04-08 23:55:00,
2013-04-08 19:00:00,70.3,58.4,29.85,WNW,287,0.0,-999.0,66,0.00,,,0.19,Wunderground v.1.15,2013-04-09 00:00:00,
2013-04-08 19:10:00,70.0,58.1,29.85,WNW,287,0.0,-999.0,66,0.00,,,0.19,Wunderground v.1.15,2013-04-09 00:10:00,
2013-04-08 19:20:00,69.5,57.6,29.85,WNW,287,0.0,-999.0,66,0.00,,,0.19,Wunderground v.1.15,2013-04-09 00:20:00,
2013-04-08 19:25:00,69.2,58.2,29.85,WNW,287,0.0,-999.0,68,0.00,,,0.19,Wunderground v.1.15,2013-04-09 00:25:00,
2013-04-08 19:30:00,68.8,57.8,29.85,WNW,287,0.0,-999.0,68,0.00,,,0.19,Wunderground v.1.15,2013-04-09 00:30:00,
2013-04-08 19:40:00,68.1,57.5,29.86,WNW,287,0.0,-999.0,69,0.00,,,0.19,Wunderground v.1.15,2013-04-09 00:40:00,
2013-04-08 19:45:00,67.8,57.7,29.86,WNW,287,0.0,-999.0,70,0.00,,,0.19,Wunderground v.1.15,2013-04-09 00:45:00,
2013-04-08 19:50:00,67.5,58.2,29.86,WNW,287,0.0,-999.0,72,0.00,,,0.19,Wunderground v.1.15,2013-04-09 00:50:00,
2013-04-08 19:55:00,67.2,57.9,29.86,WNW,287,0.0,-999.0,72,0.00,,,0.19,Wunderground v.1.15,2013-04-09 00:55:00,
2013-04-08 20:05:00,66.7,57.8,29.86,WNW,287,0.0,-999.0,73,0.00,,,0.19,Wunderground v.1.15,2013-04-09 01:05:00,
2013-04-08 20:15:00,66.5,57.6,29.86,WNW,287,0.0,-999.0,73,0.00,,,0.19,Wunderground v.1.15,2013-04-09 01:15:00,
2013-04-08 20:20:00,66.4,57.9,29.86,WNW,287,0.0,-999.0,74,0.00,,,0.19,Wunderground v.1.15,2013-04-09 01:20:00,
2013-04-08 20:25:00,66.2,57.7,29.86,WNW,287,0.0,-999.0,74,0.00,,,0.19,Wunderground v.1.15,2013-04-09 01:25:00,
2013-04-08 20:30:00,66.1,57.9,29.87,West,275,0.0,-999.0,75,0.00,,,0.19,Wunderground v.1.15,2013-04-09 01:30:00,
2013-04-08 20:35:00,66.3,58.1,29.88,SSW,196,1.0,-999.0,75,0.00,,,0.19,Wunderground v.1.15,2013-04-09 01:35:00,
2013-04-08 20:45:00,66.6,59.2,29.88,SW,221,5.0,-999.0,77,0.00,,,0.19,Wunderground v.1.15,2013-04-09 01:45:00,
2013-04-08 20:50:00,66.8,59.4,29.88,SW,220,4.0,-999.0,77,0.00,,,0.19,Wunderground v.1.15,2013-04-09 01:50:00,
2013-04-08 20:55:00,66.7,59.6,29.88,SSW,211,3.0,-999.0,78,0.00,,,0.19,Wunderground v.1.15,2013-04-09 01:55:00,
2013-04-08 21:00:00,66.7,59.6,29.88,SSW,209,3.0,-999.0,78,0.00,,,0.19,Wunderground v.1.15,2013-04-09 02:00:00,
2013-04-08 21:20:00,66.5,59.8,29.89,SW,214,2.0,-999.0,79,0.00,,,0.19,Wunderground v.1.15,2013-04-09 02:20:00,
2013-04-08 21:25:00,66.3,59.9,29.89,SSW,209,2.0,-999.0,80,0.00,,,0.19,Wunderground v.1.15,2013-04-09 02:25:00,
2013-04-08 21:35:00,66.0,59.7,29.89,SSW,208,2.0,-999.0,80,0.00,,,0.19,Wunderground v.1.15,2013-04-09 02:35:00,
2013-04-08 21:40:00,65.7,59.7,29.89,SSW,209,2.0,-999.0,81,0.00,,,0.19,Wunderground v.1.15,2013-04-09 02:40:00,
2013-04-08 21:45:00,65.5,59.5,29.90,SSW,212,2.0,-999.0,81,0.00,,,0.19,Wunderground v.1.15,2013-04-09 02:45:00,
2013-04-08 21:50:00,65.2,59.6,29.90,SW,236,3.0,-999.0,82,0.00,,,0.19,Wunderground v.1.15,2013-04-09 02:50:00,
2013-04-08 21:55:00,65.1,59.5,29.90,SW,217,3.0,-999.0,82,0.00,,,0.19,Wunderground v.1.15,2013-04-09 02:55:00,
2013-04-08 22:05:00,64.8,59.2,29.90,SW,229,3.0,-999.0,82,0.00,,,0.19,Wunderground v.1.15,2013-04-09 03:05:00,
2013-04-08 22:15:00,64.3,59.0,29.90,SSW,211,4.0,-999.0,83,0.00,,,0.19,Wunderground v.1.15,2013-04-09 03:15:00,
2013-04-08 22:20:00,64.2,58.9,29.90,SSW,207,4.0,-999.0,83,0.00,,,0.19,Wunderground v.1.15,2013-04-09 03:20:00,
2013-04-08 22:25:00,64.1,58.8,29.90,SSW,210,4.0,-999.0,83,0.00,,,0.19,Wunderground v.1.15,2013-04-09 03:25:00,
2013-04-08 22:30:00,64.0,59.1,29.90,SSW,211,3.0,-999.0,84,0.00,,,0.19,Wunderground v.1.15,2013-04-09 03:30:00,
2013-04-08 22:35:00,64.0,58.7,29.91,SW,216,3.0,-999.0,83,0.00,,,0.19,Wunderground v.1.15,2013-04-09 03:35:00,
2013-04-08 22:40:00,64.1,58.8,29.91,SW,216,3.0,-999.0,83,0.00,,,0.19,Wunderground v.1.15,2013-04-09 03:40:00,
2013-04-08 22:45:00,64.0,58.7,29.91,SW,216,2.0,-999.0,83,0.00,,,0.19,Wunderground v.1.15,2013-04-09 03:45:00,
2013-04-08 22:55:00,63.8,58.5,29.91,SW,216,1.0,-999.0,83,0.00,,,0.19,Wunderground v.1.15,2013-04-09 03:55:00,
2013-04-08 23:00:00,63.6,58.3,29.91,SW,216,2.0,-999.0,83,0.00,,,0.19,Wunderground v.1.15,2013-04-09 04:00:00,
2013-04-08 23:05:00,63.4,58.5,29.91,SSW,213,3.0,-999.0,84,0.00,,,0.19,Wunderground v.1.15,2013-04-09 04:05:00,
2013-04-08 23:10:00,63.2,58.3,29.91,SSW,213,3.0,-999.0,84,0.00,,,0.19,Wunderground v.1.15,2013-04-09 04:10:00,
2013-04-08 23:15:00,63.1,58.5,29.91,SSW,192,3.0,-999.0,85,0.00,,,0.19,Wunderground v.1.15,2013-04-09 04:15:00,
2013-04-08 23:25:00,63.3,58.4,29.91,SSW,193,4.0,-999.0,84,0.00,,,0.19,Wunderground v.1.15,2013-04-09 04:25:00,
2013-04-08 23:30:00,63.5,58.6,29.91,SSW,192,4.0,-999.0,84,0.00,,,0.19,Wunderground v.1.15,2013-04-09 04:30:00,
2013-04-08 23:35:00,63.6,58.7,29.91,South,181,4.0,-999.0,84,0.00,,,0.19,Wunderground v.1.15,2013-04-09 04:35:00,
2013-04-08 23:40:00,63.7,58.4,29.91,South,188,4.0,-999.0,83,0.00,,,0.19,Wunderground v.1.15,2013-04-09 04:40:00,
2013-04-08 23:50:00,63.6,58.3,29.91,SSW,192,3.0,-999.0,83,0.00,,,0.19,Wunderground v.1.15,2013-04-09 04:50:00,